APJ491 RJGG-RJSS

Flight info

Callsign APJ491
Flight time 0h 48m
Altitude 31000
Route MORIZ TSUGU CHAUS Y151 MYOGI Y15 OWLET
Aircraft A320/M-SDE3FGHIRWY/LB1

Departure

Time 2026-05-08 02:40
Airport Chubu Centrair International Airport (RJGG)

Arrival

Time 2026-05-08 03:28
Airport Sendai Airport (RJSS)
Time Latitude Longitude Altitude Speed Heading
2026-05-08 02:19 34.86360 136.81207 28 ft 0 kts 75°
2026-05-08 02:28 34.86358 136.81198 29 ft 6 kts 75°
2026-05-08 02:28 34.86349 136.81155 29 ft 6 kts 76°
2026-05-08 02:28 34.86342 136.81132 29 ft 3 kts 61°
2026-05-08 02:28 34.86336 136.81120 29 ft 2 kts 33°
2026-05-08 02:29 34.86326 136.81113 29 ft 2 kts 10°
2026-05-08 02:29 34.86315 136.81112 29 ft 2 kts 356°
2026-05-08 02:29 34.86305 136.81113 29 ft 0 kts 348°
2026-05-08 02:33 34.86319 136.81109 28 ft 6 kts 348°
2026-05-08 02:34 34.86353 136.81045 28 ft 13 kts 268°
2026-05-08 02:34 34.86334 136.80923 28 ft 16 kts 259°
2026-05-08 02:34 34.86323 136.80798 28 ft 12 kts 302°
2026-05-08 02:34 34.86412 136.80756 28 ft 17 kts 349°
2026-05-08 02:35 34.86545 136.80724 28 ft 21 kts 349°
2026-05-08 02:35 34.86685 136.80690 28 ft 19 kts 348°
2026-05-08 02:35 34.86808 136.80661 28 ft 19 kts 348°
2026-05-08 02:35 34.86934 136.80631 28 ft 17 kts 349°
2026-05-08 02:36 34.87060 136.80601 28 ft 20 kts 349°
2026-05-08 02:36 34.87200 136.80567 28 ft 21 kts 349°
2026-05-08 02:36 34.87291 136.80546 28 ft 11 kts 349°
2026-05-08 02:36 34.87382 136.80524 28 ft 11 kts 348°
2026-05-08 02:37 34.87422 136.80466 28 ft 10 kts 266°
2026-05-08 02:37 34.87407 136.80387 28 ft 5 kts 257°
2026-05-08 02:37 34.87398 136.80327 27 ft 3 kts 258°
2026-05-08 02:37 34.87394 136.80308 27 ft 0 kts 258°
2026-05-08 02:38 34.87394 136.80307 27 ft 2 kts 258°
2026-05-08 02:38 34.87384 136.80251 28 ft 10 kts 258°
2026-05-08 02:38 34.87362 136.80184 27 ft 7 kts 220°
2026-05-08 02:38 34.87330 136.80181 27 ft 0 kts 170°
2026-05-08 02:39 34.87307 136.80187 27 ft 22 kts 169°
2026-05-08 02:39 34.86885 136.80287 30 ft 96 kts 168°
2026-05-08 02:39 34.86029 136.80491 24 ft 151 kts 169°
2026-05-08 02:40 34.84871 136.80767 219 ft 178 kts 173°
2026-05-08 02:40 34.83712 136.80477 918 ft 172 kts 221°
2026-05-08 02:40 34.83107 136.79279 1640 ft 170 kts 264°
2026-05-08 02:40 34.83318 136.77801 2077 ft 191 kts 287°
2026-05-08 02:41 34.83773 136.76151 2453 ft 219 kts 287°
2026-05-08 02:41 34.84273 136.74297 2988 ft 241 kts 287°
2026-05-08 02:41 34.84822 136.72314 3716 ft 251 kts 291°
2026-05-08 02:41 34.85932 136.70647 4543 ft 265 kts 324°
2026-05-08 02:42 34.87683 136.69824 5384 ft 274 kts 341°
2026-05-08 02:42 34.89567 136.69314 6253 ft 280 kts 345°
2026-05-08 02:42 34.91522 136.68989 7027 ft 290 kts 358°
2026-05-08 02:42 34.93506 136.69630 7807 ft 305 kts 27°
2026-05-08 02:43 34.95102 136.71357 8604 ft 314 kts 56°
2026-05-08 02:43 34.95929 136.73826 9361 ft 319 kts 77°
2026-05-08 02:43 34.96471 136.76461 10137 ft 323 kts 78°
2026-05-08 02:43 34.97017 136.79209 10465 ft 345 kts 78°
2026-05-08 02:44 34.97597 136.82145 10780 ft 365 kts 78°
2026-05-08 02:44 34.98201 136.85191 11380 ft 374 kts 78°
2026-05-08 02:44 34.98823 136.88295 12067 ft 380 kts 78°
2026-05-08 02:44 34.99462 136.91446 12748 ft 386 kts 78°
2026-05-08 02:45 35.00115 136.94648 13412 ft 392 kts 78°
2026-05-08 02:45 35.00780 136.97901 14034 ft 398 kts 79°
2026-05-08 02:45 35.01451 137.01199 14622 ft 403 kts 79°
2026-05-08 02:45 35.02123 137.04540 15218 ft 408 kts 79°
2026-05-08 02:46 35.02798 137.07927 15800 ft 413 kts 79°
2026-05-08 02:46 35.03480 137.11358 16370 ft 419 kts 79°
2026-05-08 02:46 35.04171 137.14831 16945 ft 424 kts 78°
2026-05-08 02:46 35.04875 137.18347 17517 ft 429 kts 78°
2026-05-08 02:47 35.05729 137.21867 18060 ft 436 kts 70°
2026-05-08 02:47 35.07042 137.25231 18556 ft 442 kts 59°
2026-05-08 02:47 35.08589 137.28490 19065 ft 445 kts 59°
2026-05-08 02:47 35.10144 137.31778 19590 ft 449 kts 59°
2026-05-08 02:48 35.11707 137.35098 20050 ft 453 kts 59°
2026-05-08 02:48 35.13281 137.38449 20568 ft 457 kts 59°
2026-05-08 02:48 35.14868 137.41829 21103 ft 460 kts 59°
2026-05-08 02:48 35.16467 137.45236 21606 ft 464 kts 59°
2026-05-08 02:49 35.18103 137.48718 22129 ft 468 kts 59°
2026-05-08 02:49 35.19707 137.52137 22637 ft 472 kts 59°
2026-05-08 02:49 35.21363 137.55678 23143 ft 476 kts 59°
2026-05-08 02:49 35.23012 137.59207 23595 ft 479 kts 59°
2026-05-08 02:50 35.24670 137.62763 23983 ft 483 kts 59°
2026-05-08 02:50 35.26334 137.66339 24396 ft 485 kts 59°
2026-05-08 02:50 35.28007 137.69942 24777 ft 488 kts 59°
2026-05-08 02:50 35.29686 137.73559 25141 ft 490 kts 59°
2026-05-08 02:51 35.31389 137.77184 25490 ft 492 kts 59°
2026-05-08 02:51 35.33118 137.80815 25863 ft 495 kts 59°
2026-05-08 02:51 35.34866 137.84455 26230 ft 497 kts 59°
2026-05-08 02:51 35.36628 137.88112 26593 ft 500 kts 59°
2026-05-08 02:52 35.38400 137.91783 26955 ft 502 kts 57°
2026-05-08 02:52 35.40496 137.95205 27308 ft 502 kts 45°
2026-05-08 02:52 35.43069 137.98071 27661 ft 499 kts 32°
2026-05-08 02:52 35.46015 138.00272 27964 ft 493 kts 20°
2026-05-08 02:53 35.49203 138.01724 28293 ft 486 kts
2026-05-08 02:53 35.52502 138.02420 28611 ft 477 kts 356°
2026-05-08 02:53 35.55791 138.02388 28855 ft 469 kts 346°
2026-05-08 02:53 35.59052 138.02012 29126 ft 478 kts 353°
2026-05-08 02:54 35.62399 138.02638 29484 ft 498 kts 12°
2026-05-08 02:54 35.65584 138.04445 29796 ft 512 kts 28°
2026-05-08 02:54 35.68398 138.07178 30017 ft 521 kts 43°
2026-05-08 02:54 35.70673 138.10666 30285 ft 525 kts 58°
2026-05-08 02:55 35.72379 138.14639 30540 ft 526 kts 64°
2026-05-08 02:55 35.75558 138.22752 30837 ft 523 kts 65°
2026-05-08 02:55 35.77075 138.26742 30836 ft 506 kts 66°
2026-05-08 02:56 35.78548 138.30644 30846 ft 499 kts 66°
2026-05-08 02:56 35.81475 138.38359 30840 ft 496 kts 66°
2026-05-08 02:57 35.84423 138.46053 30839 ft 496 kts 66°
2026-05-08 02:57 35.87367 138.53748 30832 ft 496 kts 66°
2026-05-08 02:58 35.90304 138.61457 30827 ft 497 kts 66°
2026-05-08 02:58 35.93220 138.69164 30817 ft 495 kts 66°
2026-05-08 02:59 35.95633 138.75583 30812 ft 495 kts 66°
2026-05-08 02:59 35.98537 138.83297 30806 ft 495 kts 66°
2026-05-08 03:00 36.01442 138.91026 30811 ft 497 kts 67°
2026-05-08 03:00 36.04347 138.98766 30807 ft 497 kts 67°
2026-05-08 03:01 36.07255 139.06514 30808 ft 497 kts 67°
2026-05-08 03:01 36.10157 139.14279 30807 ft 498 kts 67°
2026-05-08 03:02 36.13047 139.22059 30797 ft 497 kts 67°
2026-05-08 03:02 36.16087 139.29742 30788 ft 498 kts 58°
2026-05-08 03:03 36.20449 139.36373 30791 ft 497 kts 44°
2026-05-08 03:03 36.25242 139.42556 30789 ft 498 kts 45°
2026-05-08 03:04 36.30009 139.48775 30790 ft 498 kts 45°
2026-05-08 03:04 36.34766 139.55017 30787 ft 498 kts 45°
2026-05-08 03:05 36.40066 139.60429 30790 ft 491 kts 26°
2026-05-08 03:05 36.46280 139.63629 30789 ft 479 kts
2026-05-08 03:06 36.52713 139.65804 30785 ft 479 kts
2026-05-08 03:06 36.59147 139.68014 30790 ft 480 kts
2026-05-08 03:07 36.65581 139.70230 30790 ft 480 kts
2026-05-08 03:07 36.72018 139.72433 30789 ft 480 kts
2026-05-08 03:08 36.78459 139.74637 30794 ft 480 kts
2026-05-08 03:08 36.84901 139.76850 30790 ft 480 kts 10°
2026-05-08 03:09 36.91346 139.79073 30790 ft 480 kts
2026-05-08 03:09 36.97791 139.81295 30789 ft 481 kts 10°
2026-05-08 03:10 37.04282 139.83547 30506 ft 488 kts 10°
2026-05-08 03:10 37.07559 139.84686 29456 ft 487 kts 11°
2026-05-08 03:10 37.10806 139.85819 28414 ft 482 kts 10°
2026-05-08 03:10 37.14013 139.86937 27461 ft 475 kts 10°
2026-05-08 03:11 37.17178 139.88036 26550 ft 469 kts 10°
2026-05-08 03:11 37.20302 139.89120 25680 ft 463 kts
2026-05-08 03:11 37.23392 139.90194 24950 ft 460 kts
2026-05-08 03:11 37.26467 139.91262 24487 ft 457 kts
2026-05-08 03:12 37.29517 139.92327 23935 ft 452 kts
2026-05-08 03:12 37.32505 139.93374 23425 ft 439 kts
2026-05-08 03:12 37.35411 139.94394 22854 ft 428 kts
2026-05-08 03:12 37.38232 139.95388 22364 ft 414 kts
2026-05-08 03:13 37.40966 139.96349 21883 ft 402 kts
2026-05-08 03:13 37.43624 139.97276 21421 ft 391 kts
2026-05-08 03:13 37.46252 139.98185 20970 ft 392 kts
2026-05-08 03:13 37.48882 139.99093 20511 ft 393 kts
2026-05-08 03:14 37.51457 140.00309 20058 ft 400 kts 23°
2026-05-08 03:14 37.53807 140.02219 19591 ft 405 kts 38°
2026-05-08 03:14 37.55792 140.04747 19116 ft 408 kts 53°
2026-05-08 03:14 37.57388 140.07705 18642 ft 409 kts 59°
2026-05-08 03:15 37.58942 140.10720 18155 ft 412 kts 59°
2026-05-08 03:15 37.60510 140.13747 17642 ft 413 kts 58°
2026-05-08 03:15 37.62082 140.16775 17186 ft 411 kts 58°
2026-05-08 03:15 37.63648 140.19791 16741 ft 410 kts 58°
2026-05-08 03:16 37.65206 140.22802 16298 ft 409 kts 58°
2026-05-08 03:16 37.66760 140.25805 15855 ft 408 kts 58°
2026-05-08 03:16 37.68305 140.28796 15406 ft 402 kts 58°
2026-05-08 03:16 37.69806 140.31707 14971 ft 388 kts 58°
2026-05-08 03:17 37.71252 140.34513 14569 ft 376 kts 58°
2026-05-08 03:17 37.72658 140.37241 14161 ft 365 kts 58°
2026-05-08 03:17 37.74018 140.39886 13770 ft 354 kts 58°
2026-05-08 03:17 37.75361 140.42499 13349 ft 355 kts 58°
2026-05-08 03:18 37.76596 140.45181 13031 ft 351 kts 67°
2026-05-08 03:18 37.77365 140.48085 12683 ft 345 kts 81°
2026-05-08 03:18 37.77678 140.51065 12260 ft 342 kts 88°
2026-05-08 03:18 37.77898 140.54031 12005 ft 337 kts 88°
2026-05-08 03:19 37.78118 140.56967 11644 ft 333 kts 88°
2026-05-08 03:19 37.78337 140.59863 11033 ft 329 kts 87°
2026-05-08 03:19 37.78598 140.62720 10432 ft 326 kts 78°
2026-05-08 03:19 37.79521 140.65288 9863 ft 320 kts 51°
2026-05-08 03:20 37.81191 140.67056 9263 ft 310 kts 23°
2026-05-08 03:20 37.83226 140.67736 8622 ft 299 kts 358°
2026-05-08 03:20 37.85276 140.67570 7925 ft 295 kts 352°
2026-05-08 03:20 37.87310 140.67325 7295 ft 291 kts 352°
2026-05-08 03:21 37.89312 140.67079 6845 ft 287 kts 352°
2026-05-08 03:21 37.91297 140.66837 6399 ft 286 kts 353°
2026-05-08 03:21 37.93298 140.66595 5947 ft 284 kts 353°
2026-05-08 03:21 37.95278 140.66357 5503 ft 286 kts 354°
2026-05-08 03:22 37.97228 140.66122 5070 ft 286 kts 354°
2026-05-08 03:22 37.99197 140.65888 4696 ft 284 kts 355°
2026-05-08 03:22 38.01159 140.66003 4342 ft 281 kts 11°
2026-05-08 03:22 38.03110 140.66526 3889 ft 279 kts 13°
2026-05-08 03:23 38.04940 140.67039 3754 ft 259 kts 13°
2026-05-08 03:23 38.06623 140.67514 3637 ft 237 kts 13°
2026-05-08 03:23 38.08166 140.67972 3539 ft 221 kts 19°
2026-05-08 03:23 38.09479 140.68866 3462 ft 209 kts 41°
2026-05-08 03:24 38.10412 140.70212 3243 ft 201 kts 61°
2026-05-08 03:24 38.10933 140.71847 2920 ft 200 kts 75°
2026-05-08 03:24 38.11351 140.73537 2621 ft 200 kts 74°
2026-05-08 03:24 38.11772 140.75206 2347 ft 196 kts 74°
2026-05-08 03:25 38.12186 140.76844 2074 ft 193 kts 74°
2026-05-08 03:25 38.12594 140.78452 1810 ft 189 kts 74°
2026-05-08 03:25 38.12855 140.80034 1541 ft 177 kts 84°
2026-05-08 03:25 38.13005 140.81502 1342 ft 157 kts 84°
2026-05-08 03:26 38.13143 140.82806 1145 ft 144 kts 85°
2026-05-08 03:26 38.13272 140.84042 950 ft 138 kts 84°
2026-05-08 03:26 38.13397 140.85249 764 ft 136 kts 84°
2026-05-08 03:26 38.13521 140.86440 589 ft 136 kts 84°
2026-05-08 03:27 38.13646 140.87634 409 ft 137 kts 85°
2026-05-08 03:27 38.13770 140.88831 225 ft 136 kts 85°
2026-05-08 03:27 38.13890 140.90021 48 ft 135 kts 85°
2026-05-08 03:27 38.14003 140.91110 18 ft 105 kts 83°
2026-05-08 03:28 38.14075 140.91808 17 ft 55 kts 82°
2026-05-08 03:28 38.14107 140.92119 19 ft 28 kts 83°
2026-05-08 03:28 38.14133 140.92364 20 ft 27 kts 82°
2026-05-08 03:28 38.14147 140.92513 20 ft 11 kts 90°
2026-05-08 03:29 38.14083 140.92557 17 ft 14 kts 171°
2026-05-08 03:29 38.14009 140.92587 15 ft 12 kts 135°
2026-05-08 03:29 38.13936 140.92627 14 ft 8 kts 173°
2026-05-08 03:29 38.13890 140.92634 13 ft 5 kts 172°
2026-05-08 03:30 38.13878 140.92636 12 ft 0 kts 172°